This demonstration page uses our WeatherBlox Daily Observations layout. Learn more.

Left ArrowRight Arrow

Hourly Observations for May 11, 2019

Temp ( °F °C ) Dew Point ( °F °C ) Humidity (%) Winds ( mph kmh ) Pressure ( in mb ) Visibility ( mi km ) Precip ( " mm )
12:15 am 00:15 Clear 44 6.5 37 2.9 78 78 S 8 13 30.09 1019 10 16 N/A
12:35 am 00:35 Clear 43 6.1 37 2.9 80 80 S 7 11 30.10 1019 10 16 N/A
12:55 am 00:55 Clear 45 7 38 3.2 77 77 S 7 11 30.09 1019 10 16 N/A
1:15 am 01:15 Clear 45 7 38 3.3 78 78 S 8 13 30.09 1019 10 16 N/A
1:35 am 01:35 Clear 44 6.5 38 3.3 80 80 S 7 11 30.08 1019 10 16 N/A
1:55 am 01:55 Clear 44 6.5 38 3.5 81 81 S 8 13 30.08 1019 10 16 N/A
2:15 am 02:15 Clear 43 6.2 38 3.5 83 83 S 7 11 30.08 1019 10 16 N/A
2:35 am 02:35 Clear 43 6.2 38 3.5 83 83 SSW 8 13 30.07 1018 10 16 N/A
2:55 am 02:55 Clear 42 5.8 38 3.6 86 86 SSW 8 13 30.06 1018 10 16 N/A
3:15 am 03:15 Clear 42 5.5 38 3.6 88 88 SSW 7 11 30.05 1018 10 16 N/A
3:35 am 03:35 Clear 42 5.6 38 3.6 87 87 SW 7 11 30.05 1018 10 16 N/A
3:55 am 03:55 Clear 42 5.5 38 3.6 88 88 SW 6 9 30.05 1018 10 16 N/A
4:15 am 04:15 Clear 41 5.1 38 3.5 90 90 SW 6 9 30.05 1018 10 16 N/A
4:35 am 04:35 Clear 40 4.7 38 3.5 92 92 SSW 7 11 30.05 1018 10 16 N/A
4:55 am 04:55 Clear 40 4.5 38 3.3 92 92 SSW 7 11 30.04 1017 10 16 N/A
5:15 am 05:15 Clear 40 4.6 38 3.5 93 93 SSW 7 11 30.03 1017 10 16 N/A
5:35 am 05:35 Clear 40 4.5 38 3.5 93 93 SW 7 11 30.03 1017 10 16 N/A
5:55 am 05:55 Clear 40 4.5 38 3.5 93 93 SW 7 11 30.02 1017 10 16 N/A
6:15 am 06:15 Clear 40 4.6 38 3.5 93 93 SSW 8 13 30.02 1017 10 16 N/A
6:35 am 06:35 Sunny 40 4.2 38 3.5 95 95 SSW 7 11 30.02 1016 10 16 N/A
6:55 am 06:55 Sunny 40 4.5 38 3.6 94 94 SW 6 9 30.01 1016 10 16 N/A
7:15 am 07:15 Sunny 41 5.2 39 4.1 93 93 SSW 6 9 30.01 1016 10 16 N/A
7:35 am 07:35 Sunny 43 5.9 40 4.6 91 91 SW 5 7 30.00 1016 10 16 N/A
7:55 am 07:55 Sunny 44 6.8 42 5.3 90 90 SW 6 9 29.99 1016 10 16 N/A
8:15 am 08:15 Sunny 46 7.9 42 5.7 86 86 SW 7 11 29.97 1015 10 16 N/A
8:35 am 08:35 Sunny 48 8.8 43 6.2 84 84 SW 9 15 29.95 1014 10 16 N/A
8:55 am 08:55 Sunny 50 9.8 44 6.6 81 81 SW 9 15 29.93 1014 10 16 N/A
9:15 am 09:15 Sunny 51 10.3 44 6.7 79 79 SW 9 15 29.93 1014 10 16 N/A
9:35 am 09:35 Sunny 52 11.1 45 7.1 77 77 SW 10 17 29.92 1013 10 16 N/A
9:55 am 09:55 Sunny 53 11.7 45 7.1 74 74 WSW 9 15 29.91 1013 10 16 N/A
10:15 am 10:15 Sunny 54 12.4 45 7.3 71 71 WSW 9 15 29.89 1012 10 16 N/A
10:35 am 10:35 Sunny 56 13.3 46 7.5 68 68 SW 9 15 29.87 1012 10 16 N/A
10:55 am 10:55 Sunny 57 13.7 45 7.3 66 66 SW 12 19 29.87 1012 10 16 N/A
11:15 am 11:15 Partly Cloudy 59 14.9 44 6.9 59 59 SW 12 19 29.86 1011 10 16 N/A
11:35 am 11:35 Partly Cloudy 58 14.6 44 6.8 60 60 SW 10 17 29.86 1011 10 16 N/A
11:55 am 11:55 Mostly Cloudy 60 15.8 44 6.9 56 56 SW 12 19 29.85 1011 10 16 N/A
12:15 pm 12:15 Cloudy 61 15.9 44 6.9 55 55 SW 10 17 29.84 1011 10 16 N/A
12:35 pm 12:35 Cloudy 61 16.2 45 7.1 55 55 SSW 10 17 29.83 1010 10 16 N/A
12:55 pm 12:55 Mostly Cloudy 62 16.8 45 7.2 53 53 SW 14 22 29.81 1010 10 16 N/A
1:15 pm 13:15 Cloudy 62 16.6 44 6.5 52 52 SSW 14 22 29.82 1010 10 16 N/A
1:35 pm 13:35 Cloudy 60 15.8 44 6.6 55 55 SW 12 19 29.82 1010 10 16 N/A
1:55 pm 13:55 Cloudy 63 17 45 7.2 53 53 SW 9 15 29.80 1009 10 16 N/A
2:15 pm 14:15 Mostly Cloudy 62 16.5 45 7 54 54 SSW 12 19 29.80 1009 10 16 N/A
2:35 pm 14:35 Cloudy 63 17.1 45 7 52 52 SSW 16 26 29.78 1009 10 16 N/A
2:55 pm 14:55 Cloudy 62 16.9 45 7 52 52 SSW 13 20 29.77 1008 10 16 N/A
3:15 pm 15:15 Cloudy with Light Rain 62 16.4 45 7.1 54 54 SW 13 20 29.77 1008 10 16 N/A
3:35 pm 15:35 Cloudy with Rain 56 13.1 47 8.5 74 74 WNW 15 24 29.82 1010 5 8 0.04 1.02
3:55 pm 15:55 Cloudy 54 12.3 51 10.4 88 88 SW 7 11 29.81 1010 7 11 0.08 2.03
4:15 pm 16:15 Mostly Cloudy 56 13.3 50 10.1 81 81 NNW 17 28 29.80 1009 10 16 N/A
4:35 pm 16:35 Mostly Cloudy 55 12.6 49 9.6 82 82 N 6 9 29.79 1009 10 16 N/A
4:55 pm 16:55 Partly Cloudy 58 14.4 49 9.6 73 73 N 9 15 29.77 1008 10 16 N/A
5:15 pm 17:15 Partly Cloudy 59 15 48 8.9 67 67 NW 14 22 29.78 1008 10 16 N/A
5:35 pm 17:35 Partly Cloudy 57 14 48 8.7 71 71 N 17 28 29.79 1009 10 16 N/A
5:55 pm 17:55 Sunny 58 14.2 49 9.5 74 74 N 15 24 29.78 1008 10 16 N/A
6:15 pm 18:15 Partly Cloudy 58 14.2 48 8.9 71 71 NNE 12 19 29.79 1009 10 16 N/A
6:35 pm 18:35 Partly Cloudy 58 14.2 48 8.7 70 70 NNE 9 15 29.79 1009 10 16 N/A
6:55 pm 18:55 Mostly Cloudy 56 13.1 47 8.3 73 73 NW 5 7 29.80 1009 10 16 N/A
7:15 pm 19:15 Cloudy with Rain 51 10.5 49 9.2 92 92 N N/A 29.83 1010 4 6 0.05 1.27
7:35 pm 19:35 Cloudy 51 10.6 49 9.5 93 93 N N/A 29.83 1010 10 16 0.06 1.52
7:55 pm 19:55 Cloudy 51 10.8 50 10 95 95 W 3 6 29.82 1010 10 16 0.06 1.52
8:15 pm 20:15 Partly Cloudy 51 10.6 50 10 96 96 N N/A 29.82 1010 10 16 N/A
8:35 pm 20:35 Sunny 51 10.5 49 9.3 92 92 NNW 5 7 29.83 1010 10 16 N/A
8:55 pm 20:55 Clear 50 10 48 8.8 92 92 NNW 5 7 29.83 1010 10 16 N/A
9:15 pm 21:15 Clear 50 10.1 47 8.5 90 90 NNW 6 9 29.84 1011 10 16 N/A
9:35 pm 21:35 Clear 49 9.6 46 8 90 90 NNW 5 7 29.86 1011 10 16 N/A
9:55 pm 21:55 Clear 50 9.8 44 6.9 82 82 N 7 11 29.86 1011 10 16 N/A
10:15 pm 22:15 Clear 48 9.1 43 6.3 83 83 NNW 3 6 29.87 1012 10 16 N/A
10:35 pm 22:35 Clear 47 8.5 43 6.3 86 86 N N/A 29.88 1012 10 16 N/A
10:55 pm 22:55 Clear 46 7.6 44 6.4 92 92 N N/A 29.89 1012 10 16 N/A
11:15 pm 23:15 Clear 44 6.9 43 6.1 95 95 WNW 5 7 29.90 1013 10 16 N/A
11:35 pm 23:35 Clear 44 6.8 42 5.5 92 92 NW 6 9 29.91 1013 10 16 N/A
11:55 pm 23:55 Clear 43 6.3 41 5.1 92 92 NW 7 11 29.92 1013 10 16 N/A

Powered by AerisWeather